Hourly Data Report for June 18, 2018

OTTAWA INTL A
ONTARIO
Current Station Operator: NAVCAN

45°19'00.000" N
75°40'00.000" W
114.90 m
6106001
71628
YOW

Download Data

Hourly Data (June 2018)
Hourly Data Report for June 18, 2018
TIME
LST
Temp Definition
°C
Dew Point Definition
°C
Rel Hum Definition
%
Precip. Amount Definition
mm

Wind Dir Definition
10's deg

Wind Spd Definition
km/h
Visibility Definition
km
Stn Press Definition
kPa
Hmdx Definition


Wind Chill Definition


Weather Definition


00:00 23.2 17.0 68   21 9 24.1 99.82 28   LegendNANA
01:00 23.1 17.0 68   21 13 24.1 99.73 28   Mainly Clear
02:00 23.0 17.0 69   25 12 24.1 99.67 28   LegendNANA
03:00 22.5 17.1 71   22 14 24.1 99.62 28   LegendNANA
04:00 22.0 17.3 74   22 16 24.1 99.59 27   Mostly Cloudy
05:00 22.1 17.6 76   21 15 24.1 99.56 28   LegendNANA
06:00 22.8 18.2 75   20 15 24.1 99.57 29   LegendNANA
07:00 23.9 18.9 74   22 21 24.1 99.50 31   Mostly Cloudy
08:00 24.6 19.8 74   21 14 24.1 99.45 32   LegendNANA
09:00 23.7 20.8 83   27 24 16.1 99.46 32   Thunderstorms,Rain Showers
10:00 24.2 21.5 84   23 14 24.1 99.39 33   Cloudy
11:00 24.5 22.6 89   21 18 16.1 99.36 34   Rain Showers
12:00 26.4 22.9 81   23 23 24.1 99.27 37   LegendNANA
13:00 28.9 23.1 70   24 20 24.1 99.23 39   Mostly Cloudy
14:00 28.8 21.8 65   27 24 24.1 99.16 38   LegendNANA
15:00 30.1 21.4 59   28 34 24.1 99.04 39   LegendNANA
16:00 27.3 21.4 69   29 25 24.1 99.05 36   Cloudy
17:00 25.5 21.1 76   29 23 24.1 99.05 34   Rain Showers
18:00 22.6 20.6 88   30 42 16.1 99.11 31   Rain Showers
19:00 21.8 19.7 88   33 25 24.1 99.22 29   Cloudy
20:00 20.9 18.9 88   31 16 24.1 99.29 28   LegendNANA
21:00 20.0 16.9 82   33 31 24.1 99.43 25   LegendNANA
22:00 18.0 15.1 83   32 21 24.1 99.54     Mainly Clear
23:00 17.4 14.2 81   31 22 24.1 99.58     LegendNANA

Notes on Data Quality.

Legend

  • E = Estimated
  • M = Missing
  • NA = Not Available*
  • [empty] = Indicates an unobserved value
Date modified: